Weather History for Dublin Airport, Ireland

Change the Weather History Date:

Friday, April 5, 2013

  Actual Average Record
Temperature  
Mean Temperature 36 °F -  
Max Temperature 44 °F 54 °F - ()
Min Temperature 28 °F 41 °F - ()
Degree Days  
Heating Degree Days 29    
Moisture  
Dew Point 30 °F    
Average Humidity 74    
Maximum Humidity 93    
Minimum Humidity 45    
Precipitation  
Precipitation 0.01 in 0.07 in - ()
Sea Level Pressure  
Sea Level Pressure 30.21 in    
Wind  
Wind Speed 9 mph ()    
Max Wind Speed 20 mph    
Max Gust Speed -    
Visibility 6.4 miles    
Events Rain    
T = Trace of Precipitation, MM = Missing Value Source: Averaged Metar Reports

Daily Weather History Graph

Daily Weather History Graph

Search for Another Location

Airport:

Trip Planner

Search our weather history database for the weather conditions in past years. The results will help you decide how hot, cold, wet, or windy it might be!

Date:

Astronomy

Apr. 05, 2013 Rise Set
Actual Time 6:48 AM IST 8:07 PM IST
Civil Twilight 6:12 AM IST 8:44 PM IST
Nautical Twilight 5:29 AM IST 9:28 PM IST
Astronomical Twilight 4:40 AM IST 10:16 PM IST
Moon 4:28 AM IST (4/5) 2:38 PM IST (4/5)
Length of Visible Light 14h 31m
Length of Day
13h 19m
Waning Crescent, 26% of the Moon is Illuminated
Apr 5
Waning Crescent
Apr 10
New
Apr 18
First Quarter
Apr 25
Full
May 2
Last Quarter

Hourly Weather History & Observations

Time (IST) Temp. Windchill Dew Point Humidity Pressure Visibility Wind Dir Wind Speed Gust Speed Precip Events Conditions
12:00 AM 32.0 °F 26.4 °F 30.2 °F 93% 30.18 in 6.2 mi NNW 5.8 mph - N/A   Partly Cloudy
12:30 AM 32.0 °F 28.7 °F 28.4 °F 87% 30.18 in 6.2 mi NW 3.5 mph - N/A   Partly Cloudy
1:00 AM 29 °F - 27 °F 89% 30.21 in 31 mi NNW 6.7 mph - -   Scattered Clouds
1:00 AM 30.2 °F 24.3 °F 26.6 °F 86% 30.18 in 6.2 mi NNW 5.8 mph - N/A   Partly Cloudy
1:30 AM 32.0 °F 24.8 °F 28.4 °F 87% 30.18 in 6.2 mi North 8.1 mph - N/A   Mostly Cloudy
2:00 AM 30.2 °F 21.9 °F 28.4 °F 93% 30.18 in 6.2 mi North 9.2 mph - N/A   Mostly Cloudy
2:30 AM 32.0 °F 25.6 °F 28.4 °F 87% 30.18 in 6.2 mi North 6.9 mph - N/A   Mostly Cloudy
3:00 AM 33.8 °F 27.7 °F 28.4 °F 81% 30.18 in 6.2 mi NNW 6.9 mph - N/A   Scattered Clouds
3:30 AM 32.0 °F 26.4 °F 28.4 °F 87% 30.15 in 6.2 mi NNW 5.8 mph - N/A   Scattered Clouds
4:00 AM 33.8 °F 27.0 °F 30.2 °F 87% 30.15 in 6.2 mi NNW 8.1 mph - N/A   Mostly Cloudy
4:30 AM 35.6 °F 28.6 °F 30.2 °F 81% 30.15 in 6.2 mi North 9.2 mph - N/A   Mostly Cloudy
5:00 AM 35.6 °F 28.6 °F 32.0 °F 87% 30.15 in 6.2 mi North 9.2 mph - N/A   Mostly Cloudy
5:30 AM 35.6 °F 29.2 °F 32.0 °F 87% 30.18 in 6.2 mi North 8.1 mph - N/A   Mostly Cloudy
6:00 AM 35.6 °F 29.2 °F 32.0 °F 87% 30.15 in 6.2 mi North 8.1 mph - N/A   Mostly Cloudy
6:30 AM 35.6 °F 28.0 °F 32.0 °F 87% 30.18 in 6.2 mi North 10.4 mph - N/A   Mostly Cloudy
7:00 AM 36 °F - 33 °F 83% 30.20 in 19 mi North 8.9 mph - - Rain Light Rain
7:00 AM 35.6 °F 28.6 °F 32.0 °F 87% 30.18 in 6.2 mi North 9.2 mph - N/A   Mostly Cloudy
7:30 AM 37.4 °F 30.8 °F 33.8 °F 87% 30.18 in 6.2 mi North 9.2 mph - N/A   Mostly Cloudy
8:00 AM 37.4 °F 30.8 °F 33.8 °F 87% 30.18 in 3.1 mi North 9.2 mph - N/A   Small Hail
8:30 AM 37.4 °F 32.8 °F 33.8 °F 87% 30.18 in 6.2 mi North 5.8 mph - N/A   Mostly Cloudy
9:00 AM 37.4 °F 30.8 °F 35.6 °F 93% 30.21 in 6.2 mi North 9.2 mph - N/A   Mostly Cloudy
9:30 AM 37.4 °F 30.3 °F 35.6 °F 93% 30.21 in 6.2 mi North 10.4 mph - N/A   Mostly Cloudy
10:00 AM 39.2 °F 30.5 °F 35.6 °F 87% 30.21 in 6.2 mi NE 16.1 mph - N/A   Mostly Cloudy
10:30 AM 39.2 °F 30.2 °F 33.8 °F 81% 30.21 in 6.2 mi NE 17.3 mph - N/A   Mostly Cloudy
11:00 AM 39.2 °F 30.8 °F 35.6 °F 87% 30.21 in 6.2 mi NNE 15.0 mph - N/A   Mostly Cloudy
11:30 AM 39.2 °F 30.5 °F 33.8 °F 81% 30.21 in 6.2 mi NNE 16.1 mph - N/A Rain Light Rain Showers
12:00 PM 41.0 °F 33.1 °F 32.0 °F 70% 30.21 in 6.2 mi NNE 15.0 mph - N/A   Mostly Cloudy
12:30 PM 41.0 °F 32.8 °F 32.0 °F 70% 30.21 in 6.2 mi NNE 16.1 mph - N/A   Mostly Cloudy
1:00 PM 41 °F - 31 °F 57% 30.24 in 25 mi NE 20.1 mph - - Rain Light Rain Showers
1:00 PM 41.0 °F 31.9 °F 30.2 °F 65% 30.21 in 6.2 mi NE 19.6 mph - N/A   Mostly Cloudy
1:30 PM 41.0 °F 32.8 °F 28.4 °F 61% 30.21 in 6.2 mi NE 16.1 mph - N/A   Mostly Cloudy
2:00 PM 41.0 °F 33.1 °F 30.2 °F 65% 30.21 in 6.2 mi North 15.0 mph - N/A   Mostly Cloudy
2:30 PM 42.8 °F 35.1 °F 30.2 °F 61% 30.21 in 6.2 mi NNE 16.1 mph - N/A   Mostly Cloudy
3:00 PM 42.8 °F 35.4 °F 28.4 °F 57% 30.21 in 6.2 mi NNE 15.0 mph - N/A   Mostly Cloudy
3:30 PM 42.8 °F 34.8 °F 26.6 °F 53% 30.21 in 6.2 mi NE 17.3 mph - N/A   Mostly Cloudy
4:00 PM 42.8 °F 35.1 °F 28.4 °F 57% 30.21 in 6.2 mi NNE 16.1 mph - N/A   Mostly Cloudy
4:30 PM 42.8 °F 35.8 °F 28.4 °F 57% 30.21 in 6.2 mi NNE 13.8 mph - N/A   Scattered Clouds
5:00 PM 42.8 °F 35.4 °F 26.6 °F 53% 30.21 in 6.2 mi NE 15.0 mph - N/A   Scattered Clouds
5:30 PM 42.8 °F 36.6 °F 26.6 °F 53% 30.21 in 6.2 mi NE 11.5 mph - N/A   Scattered Clouds
6:00 PM 41.0 °F 33.9 °F 26.6 °F 57% 30.24 in 6.2 mi NE 12.7 mph - N/A   Partly Cloudy
6:30 PM 41.0 °F 34.3 °F 26.6 °F 57% 30.21 in 6.2 mi NE 11.5 mph - N/A   Partly Cloudy
7:00 PM 40 °F - 26 °F 45% 30.26 in 25 mi NE 11.2 mph - -   Partly Cloudy
7:00 PM 41.0 °F 34.3 °F 26.6 °F 57% 30.24 in 6.2 mi NE 11.5 mph - N/A   Partly Cloudy
7:30 PM 39.2 °F 32.5 °F 26.6 °F 61% 30.24 in 6.2 mi NE 10.4 mph - N/A   Partly Cloudy
8:00 PM 37.4 °F 30.8 °F 26.6 °F 65% 30.24 in 6.2 mi NE 9.2 mph - N/A   Partly Cloudy
8:30 PM 35.6 °F 29.9 °F 26.6 °F 70% 30.24 in 6.2 mi ENE 6.9 mph - N/A   Partly Cloudy
9:00 PM 35.6 °F 27.1 °F 26.6 °F 70% 30.24 in 6.2 mi ENE 12.7 mph - N/A   Partly Cloudy
9:30 PM 37.4 °F 32.1 °F 26.6 °F 65% 30.24 in 6.2 mi ENE 6.9 mph - N/A   Partly Cloudy
10:00 PM 35.6 °F 29.9 °F 26.6 °F 70% 30.27 in 6.2 mi NE 6.9 mph - N/A   Partly Cloudy
10:30 PM 37.4 °F 32.1 °F 26.6 °F 65% 30.27 in 6.2 mi NE 6.9 mph - N/A   Partly Cloudy
11:00 PM 33.8 °F 29.6 °F 26.6 °F 75% 30.27 in 6.2 mi NNE 4.6 mph - N/A   Partly Cloudy
11:30 PM 32.0 °F 27.5 °F 24.8 °F 75% 30.27 in 6.2 mi NNW 4.6 mph - N/A   Partly Cloudy